Location: Estherville
(43.4020°N, 94.8330°W)
Time: 02:53:11
(UTC-05:00)

Envisat - Visible Passes

Search period start: 19 July 2018 00:00
Search period end: 29 July 2018 00:00
Orbit: 764 x 766 km, 98.2° (Epoch: 18 July)

Date Brightness Start Highest point End Pass type
(mag) Time Alt. Az. Time Alt. Az. Time Alt. Az.
20 Jul 5.6 21:50:41 10° SW 21:53:45 16° W 21:56:50 10° NW visible
23 Jul 5.5 21:38:46 10° SW 21:42:28 20° W 21:46:11 10° NW visible
25 Jul 5.9 22:06:50 10° WSW 22:08:21 11° W 22:09:52 10° WNW visible
26 Jul 5.2 21:27:03 10° SSW 21:31:12 25° W 21:35:22 10° NW visible
28 Jul 5.7 21:54:17 10° WSW 21:57:02 15° W 21:59:48 10° NW visible
